User: anonymous   Login
Location: Unspecified
(0.0000°N, 0.0000°E)
Time: 07:36:52
(UTC+00:00)
Language:

Quakesat - Orbit

View from above orbital plane
View from above orbital plane
View from above satellite
View from above satellite

Ground track
Ground track

The orbit data is extracted from the following two-line orbital elements,

1 27845U 03031F   17288.97148557 +.00000124 +00000-0 +75928-4 0  9997
2 27845 098.6947 297.3808 0009377 027.2394 332.9274 14.22058229741334
Epoch (UTC): 15 October 2017 23:18:56
Eccentricity: 0.0009377
inclination: 98.6947°
perigee height: 811 km
apogee height: 825 km
right ascension of ascending node: 297.3808°
argument of perigee: 27.2394°
revolutions per day: 14.22058229
mean anomaly at epoch: 332.9274°
orbit number at epoch: 74133

The dashed part of the orbit path shows where the satellite is in the earth's shadow,  

DLR